Location: Bishopstone
(51.0167°N, 1.9000°W)
Time: 22:35:10
(UTC+00:00)

Cosmos 1624 Rocket - Pass Details

Date: 16 September 2019
Orbit: 757 x 784 km, 74.0° (Epoch: 13 October)

Event Time Altitude Azimuth Distance (km) Brightness Sun altitude
Rises 21:13:19 0° 214° (SW) 3,209 7.1 -25.5°
Reaches altitude 10° 21:15:43 10° 218° (SW) 2,286 6.4 -25.8°
Maximum altitude 21:20:50 60° 298° (WNW) 866 4.4 -26.4°
Drops below altitude 10° 21:26:00 10° 19° (NNE) 2,299 6.7 -27.0°
Sets 21:28:25 0° 23° (NNE) 3,230 7.5 -27.3°
